Radioactive Concentration measured by Seawater Radiation Monitor near Fukushima Daiichi Nuclear Power Station
Date,Time,Cs137(Bq/L),Cs134(Bq/L),Total β(Bq/L)
2021/07/10,00:00,ND,ND,19
2021/07/10,00:10,ND,ND,19
2021/07/10,00:20,ND,ND,19
2021/07/10,00:30,ND,ND,15
2021/07/10,00:40,ND,ND,16
2021/07/10,00:50,ND,ND,13
2021/07/10,01:00,ND,ND,13
2021/07/10,01:10,ND,ND,12
2021/07/10,01:20,ND,ND,14
2021/07/10,01:30,ND,ND,14
2021/07/10,01:40,ND,ND,12
2021/07/10,01:50,ND,ND,13
2021/07/10,02:00,ND,ND,12
2021/07/10,02:10,ND,ND,13
2021/07/10,02:20,ND,ND,12
2021/07/10,02:30,ND,ND,9.6
2021/07/10,02:40,ND,ND,12
2021/07/10,02:50,ND,ND,13
2021/07/10,03:00,ND,ND,14
2021/07/10,03:10,ND,ND,16
2021/07/10,03:20,ND,ND,16
2021/07/10,03:30,ND,ND,20
2021/07/10,03:40,ND,ND,16
2021/07/10,03:50,ND,ND,16
2021/07/10,04:00,ND,ND,18
2021/07/10,04:10,ND,ND,15
2021/07/10,04:20,ND,ND,17
2021/07/10,04:30,ND,ND,14
2021/07/10,04:40,ND,ND,14
2021/07/10,04:50,ND,ND,14
2021/07/10,05:00,ND,ND,13
2021/07/10,05:10,ND,ND,11
2021/07/10,05:20,ND,ND,10
2021/07/10,05:30,ND,ND,12
2021/07/10,05:40,ND,ND,14
2021/07/10,05:50,ND,ND,12
2021/07/10,06:00,ND,ND,14
2021/07/10,06:10,ND,ND,17
2021/07/10,06:20,ND,ND,16
2021/07/10,06:30,ND,ND,17
2021/07/10,06:40,ND,ND,15
2021/07/10,06:50,ND,ND,16
2021/07/10,07:00,ND,ND,15
2021/07/10,07:10,ND,ND,15
2021/07/10,07:20,ND,ND,14
2021/07/10,07:30,ND,ND,11
2021/07/10,07:40,ND,ND,14
2021/07/10,07:50,ND,ND,13
2021/07/10,08:00,ND,ND,14
2021/07/10,08:10,ND,ND,13
2021/07/10,08:20,0.064,ND,15
2021/07/10,08:30,0.096,ND,16
2021/07/10,08:40,0.093,ND,16
2021/07/10,08:50,0.12,ND,16
2021/07/10,09:00,0.14,ND,16
2021/07/10,09:10,0.16,ND,16
2021/07/10,09:20,0.17,ND,16
2021/07/10,09:30,0.17,ND,16
2021/07/10,09:40,0.18,ND,13
2021/07/10,09:50,0.19,ND,ND
2021/07/10,10:00,0.20,ND,ND
2021/07/10,10:10,0.19,ND,ND
2021/07/10,10:20,0.17,ND,ND
2021/07/10,10:30,0.16,ND,ND
2021/07/10,10:40,0.14,ND,ND
2021/07/10,10:50,0.094,ND,ND
2021/07/10,11:00,0.097,ND,9.3
2021/07/10,11:10,0.073,ND,11
2021/07/10,11:20,ND,ND,13
2021/07/10,11:30,ND,ND,13
2021/07/10,11:40,ND,ND,11
2021/07/10,11:50,ND,ND,13
2021/07/10,12:00,ND,ND,10
2021/07/10,12:10,ND,ND,10
2021/07/10,12:20,ND,ND,11
2021/07/10,12:30,ND,ND,11
2021/07/10,12:40,ND,ND,14
2021/07/10,12:50,ND,ND,13
2021/07/10,13:00,ND,ND,16
2021/07/10,13:10,ND,ND,16
2021/07/10,13:20,ND,ND,15
2021/07/10,13:30,ND,ND,15
2021/07/10,13:40,ND,ND,14
2021/07/10,13:50,ND,ND,13
2021/07/10,14:00,ND,ND,12
2021/07/10,14:10,ND,ND,12
2021/07/10,14:20,ND,ND,11
2021/07/10,14:30,ND,ND,9.0
2021/07/10,14:40,ND,ND,8.8
2021/07/10,14:50,ND,ND,10
2021/07/10,15:00,ND,ND,11
2021/07/10,15:10,ND,ND,13
2021/07/10,15:20,ND,ND,14
2021/07/10,15:30,ND,ND,16
2021/07/10,15:40,ND,ND,16
2021/07/10,15:50,ND,ND,17
2021/07/10,16:00,ND,ND,17
2021/07/10,16:10,ND,ND,16
2021/07/10,16:20,ND,ND,16
2021/07/10,16:30,ND,ND,15
2021/07/10,16:40,ND,ND,16
2021/07/10,16:50,ND,ND,13
2021/07/10,17:00,ND,ND,14
2021/07/10,17:10,ND,ND,13
2021/07/10,17:20,ND,ND,14
2021/07/10,17:30,ND,ND,16
2021/07/10,17:40,ND,ND,16
2021/07/10,17:50,ND,ND,16
2021/07/10,18:00,ND,ND,15
2021/07/10,18:10,ND,ND,17
2021/07/10,18:20,ND,ND,13
2021/07/10,18:30,ND,ND,12
2021/07/10,18:40,ND,ND,9.7
2021/07/10,18:50,ND,ND,13
2021/07/10,19:00,ND,ND,14
2021/07/10,19:10,ND,ND,14
2021/07/10,19:20,ND,ND,17
2021/07/10,19:30,ND,ND,16
2021/07/10,19:40,ND,ND,18
2021/07/10,19:50,ND,ND,13
2021/07/10,20:00,ND,ND,12
2021/07/10,20:10,ND,ND,ND
2021/07/10,20:20,ND,ND,10
2021/07/10,20:30,ND,ND,9.5
2021/07/10,20:40,ND,ND,11
2021/07/10,20:50,ND,ND,12
2021/07/10,21:00,ND,ND,15
2021/07/10,21:10,ND,ND,18
2021/07/10,21:20,ND,ND,16
2021/07/10,21:30,ND,ND,16
2021/07/10,21:40,ND,ND,17
2021/07/10,21:50,ND,ND,20
2021/07/10,22:00,ND,ND,18
2021/07/10,22:10,ND,ND,20
2021/07/10,22:20,ND,ND,22
2021/07/10,22:30,ND,ND,23
2021/07/10,22:40,ND,ND,24
2021/07/10,22:50,ND,ND,24
2021/07/10,23:00,0.081,ND,24
2021/07/10,23:10,0.099,ND,22
2021/07/10,23:20,0.11,ND,19
2021/07/10,23:30,0.084,ND,20
2021/07/10,23:40,0.11,ND,20
2021/07/10,23:50,0.11,ND,18
